Content
SEND FEEDBACK

Daily
Averages
Monthly
Summary
Honduras

SAN PEDRO SULA, HONDURAS


Home > Central America > Honduras
Elevation: 102 feet     Latitude: 15 27N     Longitude: 087 56W

WEATHER
 
SELECT A DAY
Number of Records: 51,732;   Date Range: 7/3/96 - 11/20/14
 
SHARE

PRINT THIS DATA

[ ← Previous Day ]
WEATHER ALMANAC - JANUARY 31, 2013
[ Next Day → ]
[ °C ]   °F
Weather ElementAverageHighLow
Temperature76.2 °F87.8 °F (3:00 pm)66.2 °F (6:00 am)
Dewpoint72.4 °F77 °F (6:00 pm)66.2 °F (6:00 am)
Humidity88.6 %100 % (12:00 am)54 % (3:00 pm)
Barometer30.00 in30.06 in (9:00 am)29.94 in (3:00 am)
Wind Speed4.9 mph15 mph (3:00 pm)
Weather ElementAverage
Visibility6.2 mi
Wind DirectionSSE (147.9 °)

Weather ElementTotal
Precipitation---
Cooling Degree Days12 (Base 65)
Growing Degree Days27 (Base 50)
Averaged from 30 records on January 31, 2013
WEATHER CONDITIONS BREAKOUT
WIND DIRECTION BREAKOUT
WEATHER BY HOUR - JANUARY 31, 2013
[ °C ]   °F
Local TimeTemperatureDewpointHumidityBarometerVisibilityWind DirectionWind SpeedGust SpeedPrecipitationEventsConditions
12:00 AM69.8 °F69.8 °F100 %29.95 in6.2 miCalmClear
1:00 AM69.8 °F69.8 °F100 %29.95 in6.2 miCalmClear
2:00 AM68.0 °F68.0 °F100 %29.95 in6.2 miCalmClear
3:00 AM68.0 °F68.0 °F99 %29.94 in7.0 miSSW (210°)2.3 mphHaze
3:00 AM68.0 °F68.0 °F100 %29.95 in6.2 miSSW (210°)2.3 mphClear
4:00 AM68.0 °F68.0 °F100 %29.95 in6.2 miSSW (210°)2.3 mphClear
5:00 AM68.0 °F68.0 °F100 %29.95 in6.2 miSSW (210°)2.3 mphClear
6:00 AM66.2 °F66.2 °F100 %29.98 in6.2 miSSW (210°)4.6 mphPartly Cloudy
6:00 AM67.0 °F67.0 °F98 %29.98 in7.0 miCalmHaze
7:00 AM66.2 °F66.2 °F100 %30.01 in6.2 miSSW (210°)4.6 mphPartly Cloudy
8:00 AM69.8 °F69.8 °F100 %30.04 in6.2 miCalmPartly Cloudy
9:00 AM73.0 °F72.0 °F94 %30.05 in6.0 miCalmHaze
9:00 AM73.4 °F71.6 °F94 %30.06 in6.2 miCalmPartly Cloudy
10:00 AM80.6 °F73.4 °F79 %30.06 in6.2 miCalmPartly Cloudy
11:00 AM82.4 °F75.2 °F79 %30.06 in6.2 miCalmPartly Cloudy
12:00 PM84.2 °F75.2 °F74 %30.04 in6.2 miCalmPartly Cloudy
1:00 PM86.0 °F75.2 °F70 %30.01 in6.2 miEast (80°)3.5 mphScattered Clouds
2:00 PM86.0 °F73.4 °F66 %29.98 in6.2 miNorth (360°)11.5 mphScattered Clouds
3:00 PM87.0 °F73.0 °F54 %29.96 in6.0 miNorth (10°)15.0 mphHaze
3:00 PM87.8 °F71.6 °F58 %29.95 in6.2 miNorth (10°)15.0 mphScattered Clouds
4:00 PM86.0 °F73.4 °F66 %29.95 in6.2 miNorth (360°)13.8 mphScattered Clouds
5:00 PM82.4 °F75.2 °F79 %29.98 in6.2 miNorth (10°)12.7 mphMostly Cloudy
6:00 PM80.6 °F77.0 °F89 %30.01 in6.2 miNorth (10°)10.4 mphMostly Cloudy
6:00 PM80.0 °F76.0 °F85 %29.99 in6.0 miNorth (10°)10.4 mphHaze
7:00 PM78.8 °F77.0 °F94 %30.01 in6.2 miNorth (360°)6.9 mphMostly Cloudy
8:00 PM78.8 °F77.0 °F94 %30.04 in6.2 miNNW (340°)4.6 mphScattered Clouds
9:00 PM78.0 °F76.0 °F92 %30.06 in6.0 miNNW (330°)6.9 mphHaze
9:00 PM78.8 °F77.0 °F94 %30.06 in6.2 miNNW (330°)6.9 mphMostly Cloudy
10:00 PM77.0 °F77.0 °F100 %30.06 in6.2 miNNW (330°)6.9 mphMostly Cloudy
11:00 PM77.0 °F77.0 °F100 %30.06 in6.2 miNNW (340°)4.6 mphMostly Cloudy
Hourly data recorded from MHLM, located miles away from San Pedro Sula, Honduras







STORIES FROM OUR PARTNERS